Weather History for Raton, NM

Change the Weather History Date:

Monday, December 24, 2012

  Actual Average (KTAD) Record (KTAD)
Temperature  
Mean Temperature 32 °F 31 °F  
Max Temperature 46 °F 45 °F 73 °F (1955)
Min Temperature 18 °F 17 °F -14 °F (1983)
Degree Days  
Heating Degree Days 33 34  
Month to date heating degree days 799  
Since 1 July heating degree days 2032  
Cooling Degree Days 0 0  
Month to date cooling degree days 0  
Year to date cooling degree days 719  
Moisture  
Dew Point 13 °F    
Average Humidity 49    
Maximum Humidity 72    
Minimum Humidity 29    
Precipitation  
Precipitation 0.00 in 0.02 in 0.38 in (1973)
Month to date precipitation 0.43  
Year to date precipitation 13.73  
Sea Level Pressure  
Sea Level Pressure 29.75 in    
Wind  
Wind Speed 6 mph (NNW)    
Max Wind Speed 18 mph    
Max Gust Speed 24 mph    
Visibility 10 miles    
Events      
T = Trace of Precipitation, MM = Missing Value Source: NWS Daily Summary

Daily Weather History Graph

Daily Weather History Graph

Search for Another Location

Airport:

Trip Planner

Search our weather history database for the weather conditions in past years. The results will help you decide how hot, cold, wet, or windy it might be!

Date:

Astronomy

Dec. 24, 2012 Rise Set
Actual Time 7:08 AM MST 4:47 PM MST
Civil Twilight 6:39 AM MST 5:16 PM MST
Nautical Twilight 6:07 AM MST 5:48 PM MST
Astronomical Twilight 5:35 AM MST 6:20 PM MST
Moon 2:14 PM MST (12/24) 3:51 AM MST (12/24)
Length of Visible Light 10h 36m
Length of Day
9h 39m
Waxing Gibbous, 89% of the Moon is Illuminated
Dec 24
Waxing Gibbous
Dec 28
Full
Jan 4
Last Quarter
Jan 11
New
Jan 18
First Quarter

Hourly Weather History & Observations

Time (MST) Temp. Windchill Dew Point Humidity Pressure Visibility Wind Dir Wind Speed Gust Speed Precip Events Conditions
12:53 AM 30.0 °F - 8.1 °F 40% 29.93 in 10.0 mi Calm Calm - N/A   Clear
1:53 AM 21.0 °F 14.6 °F 12.0 °F 68% 29.94 in 10.0 mi NE 4.6 mph - N/A   Clear
2:53 AM 19.0 °F 8.2 °F 10.0 °F 68% 29.93 in 10.0 mi North 9.2 mph - N/A   Clear
3:53 AM 18.0 °F 8.7 °F 9.0 °F 68% 29.91 in 10.0 mi NE 6.9 mph - N/A   Clear
4:53 AM 18.0 °F 12.7 °F 9.0 °F 68% 29.91 in 10.0 mi NE 3.5 mph - N/A   Clear
5:53 AM 19.9 °F 11.1 °F 9.0 °F 62% 29.89 in 10.0 mi North 6.9 mph - N/A   Clear
6:53 AM 19.9 °F 11.1 °F 9.0 °F 62% 29.91 in 10.0 mi North 6.9 mph - N/A   Clear
7:53 AM 19.0 °F 12.3 °F 10.0 °F 68% 29.90 in 10.0 mi NE 4.6 mph - N/A   Clear
8:53 AM 32.0 °F - 12.0 °F 44% 29.86 in 10.0 mi Calm Calm - N/A   Clear
9:53 AM 37.0 °F - 10.0 °F 33% 29.82 in 10.0 mi Calm Calm - N/A   Clear
10:53 AM 37.0 °F 33.3 °F 10.9 °F 34% 29.80 in 10.0 mi West 4.6 mph - N/A   Clear
11:53 AM 37.0 °F 34.5 °F 12.0 °F 36% 29.76 in 10.0 mi West 3.5 mph - N/A   Clear
12:53 PM 41.0 °F - 12.0 °F 31% 29.65 in 10.0 mi Calm Calm - N/A   Clear
1:53 PM 43.0 °F 38.8 °F 14.0 °F 31% 29.65 in 10.0 mi WSW 6.9 mph - N/A   Clear
2:53 PM 46.0 °F 41.9 °F 15.1 °F 29% 29.60 in 10.0 mi SW 8.1 mph - N/A   Clear
3:53 PM 46.0 °F 41.4 °F 16.0 °F 30% 29.60 in 10.0 mi SSW 9.2 mph - N/A   Clear
4:53 PM 39.0 °F 34.0 °F 15.1 °F 38% 29.62 in 10.0 mi SSW 6.9 mph - N/A   Clear
5:53 PM 37.9 °F 33.5 °F 16.0 °F 41% 29.62 in 10.0 mi West 5.8 mph - N/A   Clear
6:41 PM 39.2 °F 30.5 °F 14.0 °F 36% 29.60 in 10.0 mi WNW 16.1 mph - N/A   Clear
6:53 PM 39.9 °F 31.4 °F 14.0 °F 35% 29.60 in 10.0 mi WNW 16.1 mph - N/A   Clear
7:53 PM 32.0 °F 24.8 °F 15.1 °F 50% 29.64 in 10.0 mi NE 8.1 mph - N/A   Clear
8:53 PM 30.9 °F 22.2 °F 16.0 °F 54% 29.61 in 10.0 mi NNE 10.4 mph - N/A   Overcast
9:53 PM 30.0 °F 23.2 °F 17.1 °F 59% 29.59 in 10.0 mi NNE 6.9 mph - N/A   Partly Cloudy
10:53 PM 27.0 °F 13.9 °F 15.1 °F 61% 29.62 in 10.0 mi North 18.4 mph 24.2 mph N/A   Scattered Clouds
11:53 PM 23.0 °F 10.1 °F 15.1 °F 72% 29.68 in 10.0 mi North 15.0 mph - N/A   Mostly Cloudy